Location: Unspecified
(42.2600°N, 0.0000°E)
Time: 05:47:17
(UTC+00:00)

ISS - Pass Details

Date: 28 May 2019
Orbit: 408 x 418 km, 51.6° (Epoch: 19 June)

Event Time Altitude Azimuth Distance (km) Brightness Sun altitude
Rises 22:06:08 0° 307° (NW) 2,359 1.2 -21.2°
Reaches altitude 10° 22:08:20 10° 316° (NW) 1,496 0.1 -21.4°
Maximum altitude 22:11:29 38° 26° (NNE) 659 -2.5 -21.7°
Enters shadow 22:11:49 37° 41° (NE) 672 -2.6 -21.7°
